GW2746 Weather Reports


Display with metric or nautical units.
time (UTC)temp
F
wind
direction
speed
MPH
gust
MPH
rain 1hr
in
rain 24hr
in
rain mn
in
humidity
%
barometer
mb
20260904181616 91 183 2.0 9.0 0.00 0.00 0.00 62 1012.9
20260904181136 91 202 5.0 9.0 0.00 0.00 0.00 62 1013.0
20260904180644 90 141 1.0 6.0 0.00 0.00 0.00 65 1012.9
20260904180145 90 262 1.0 5.0 0.00 0.00 0.00 63 1012.9
20260904175631 90 223 2.0 8.0 0.00 0.00 0.00 64 1012.9
20260904175129 90 318 3.0 8.0 0.00 0.00 0.00 62 1013.0
20260904174633 91 300 3.0 7.0 0.00 0.00 0.00 63 1013.0
20260904174134 90 226 2.0 7.0 0.00 0.00 0.00 65 1013.0
20260904173635 90 271 4.0 7.0 0.00 0.00 0.00 65 1013.0
20260904173132 89 257 2.0 5.0 0.00 0.00 0.00 65 1013.0
20260904172635 90 285 3.0 5.0 0.00 0.00 0.00 64 1013.1
20260904172132 90 181 2.0 7.0 0.00 0.00 0.00 64 1013.0
20260904171657 89 285 2.0 7.0 0.00 0.00 0.00 65 1013.1
20260904171154 89 294 4.0 8.0 0.00 0.00 0.00 65 1013.0
20260904170621 89 232 5.0 8.0 0.00 0.00 0.00 65 1013.1
20260904170126 89 248 4.0 8.0 0.00 0.00 0.00 67 1013.0
20260904165631 88 124 3.0 8.0 0.00 0.00 0.00 66 1013.0
20260904165134 88 229 3.0 8.0 0.00 0.01 0.00 67 1013.0
20260904164638 88 282 4.0 8.0 0.00 0.01 0.00 66 1013.0
20260904164134 88 223 3.0 7.0 0.00 0.01 0.00 68 1013.0
20260904163637 88 216 2.0 7.0 0.00 0.01 0.00 68 1013.0
20260904163155 88 178 3.0 6.0 0.00 0.01 0.00 68 1012.0
20260904162618 88 245 3.0 7.0 0.00 0.01 0.00 68 1011.9
20260904162136 88 206 4.0 8.0 0.00 0.01 0.00 68 1011.9
20260904161619 87 211 2.0 8.0 0.00 0.01 0.00 69 1012.0
20260904161135 87 190 4.0 7.0 0.00 0.01 0.00 69 1012.1
20260904160619 87 289 3.0 7.0 0.00 0.01 0.00 70 1012.2
20260904160117 87 228 4.0 7.0 0.00 0.01 0.00 70 1012.2
20260904155623 86 246 2.0 10.0 0.00 0.01 0.00 71 1012.2
20260904155123 86 185 3.0 10.0 0.00 0.01 0.00 71 1012.2
20260904154627 86 204 4.0 8.0 0.00 0.01 0.00 71 1012.2
20260904154127 86 291 4.0 8.0 0.00 0.01 0.00 71 1012.2
20260904153632 86 175 3.0 7.0 0.00 0.01 0.00 71 1012.2
20260904153114 85 169 2.0 7.0 0.00 0.01 0.00 71 1012.2
20260904152624 85 286 5.0 7.0 0.00 0.01 0.00 72 1012.2
20260904152122 85 285 2.0 6.0 0.00 0.01 0.00 72 1012.1
20260904151630 85 306 3.0 6.0 0.00 0.01 0.00 73 1012.1
20260904151134 84 262 3.0 8.0 0.00 0.01 0.00 73 1012.2
20260904150635 84 228 4.0 8.0 0.00 0.01 0.00 73 1012.2
20260904150157 84 218 3.0 6.0 0.00 0.01 0.00 74 1012.2
20260904145618 83 210 3.0 8.0 0.00 0.01 0.00 74 1012.2
20260904145117 83 214 3.0 8.0 0.00 0.01 0.00 75 1012.2
20260904144658 83 245 2.0 5.0 0.00 0.01 0.00 75 1012.3
20260904144118 82 189 1.0 5.0 0.00 0.01 0.00 76 1012.2
20260904143623 82 284 3.0 5.0 0.00 0.01 0.00 76 1012.1
20260904143119 82 202 2.0 5.0 0.00 0.01 0.00 77 1012.2
20260904142623 81 225 3.0 5.0 0.00 0.01 0.00 77 1012.1
20260904142120 81 150 1.0 6.0 0.00 0.01 0.00 77 1012.2
20260904141625 81 204 3.0 6.0 0.00 0.01 0.00 77 1012.1
20260904141126 81 254 1.0 6.0 0.00 0.01 0.00 77 1012.2
20260904140629 81 216 1.0 5.0 0.00 0.01 0.00 78 1012.3
20260904140118 81 237 3.0 5.0 0.00 0.01 0.00 78 1012.3
20260904135629 81 162 2.0 5.0 0.00 0.01 0.00 78 1012.3
20260904135126 80 223 2.0 5.0 0.00 0.01 0.00 78 1012.2
20260904134631 80 187 1.0 5.0 0.00 0.01 0.00 78 1012.2
20260904134130 80 230 2.0 5.0 0.00 0.01 0.00 78 1012.2
20260904133634 80 244 2.0 5.0 0.00 0.01 0.00 78 1012.1
20260904133126 80 150 2.0 6.0 0.00 0.01 0.00 78 1012.1
20260904132629 80 189 3.0 6.0 0.00 0.01 0.00 79 1012.0
20260904132128 79 215 2.0 3.0 0.00 0.01 0.00 79 1011.9
20260904131631 79 196 1.0 5.0 0.00 0.01 0.00 79 1011.8
20260904131129 79 192 1.0 7.0 0.00 0.01 0.00 80 1011.7
20260904130632 79 245 2.0 6.0 0.00 0.01 0.00 80 1011.7
20260904130136 79 239 2.0 6.0 0.00 0.01 0.00 80 1011.7
20260904125640 78 231 1.0 3.0 0.00 0.01 0.00 81 1011.6
20260904125118 78 223 0.0 3.0 0.00 0.01 0.00 81 1011.5
20260904124622 78 264 1.0 3.0 0.00 0.01 0.00 81 1011.5
20260904124142 78 222 0.0 4.0 0.00 0.01 0.00 81 1011.4
20260904123626 78 175 1.0 4.0 0.00 0.01 0.00 80 1011.4
20260904123127 78 196 0.0 3.0 0.00 0.01 0.00 80 1011.3
20260904122652 78 220 2.0 5.0 0.00 0.01 0.00 80 1011.3
20260904122131 78 216 0.0 4.0 0.00 0.01 0.00 80 1011.3
20260904121634 79 188 2.0 4.0 0.00 0.01 0.00 80 1011.3
20260904121131 79 205 1.0 4.0 0.00 0.01 0.00 79 1011.2
20260904120620 79 222 2.0 3.0 0.00 0.01 0.00 79 1011.2
20260904120121 79 222 0.0 3.0 0.00 0.01 0.00 79 1011.2
20260904115646 79 203 0.0 4.0 0.00 0.01 0.00 78 1011.2
20260904115122 79 198 0.0 5.0 0.00 0.01 0.00 78 1011.2
20260904114644 79 221 2.0 5.0 0.00 0.01 0.00 78 1011.2
20260904114122 80 200 0.0 4.0 0.00 0.01 0.00 77 1011.1
20260904113645 80 245 2.0 4.0 0.00 0.01 0.00 77 1011.1
20260904113123 80 243 1.0 6.0 0.00 0.01 0.00 77 1011.1
20260904112625 80 243 1.0 6.0 0.00 0.01 0.00 76 1011.1
20260904112142 80 246 2.0 6.0 0.00 0.01 0.00 76 1011.1
20260904111627 80 235 3.0 6.0 0.00 0.01 0.00 76 1011.1
20260904111147 80 247 3.0 6.0 0.00 0.01 0.00 75 1011.1
20260904110627 80 309 2.0 6.0 0.00 0.01 0.00 75 1011.1
20260904110127 81 225 2.0 6.0 0.00 0.01 0.00 75 1011.1
20260904105631 81 293 3.0 6.0 0.00 0.01 0.00 75 1011.1
20260904105129 81 194 1.0 7.0 0.00 0.01 0.00 75 1011.0
20260904104635 81 232 2.0 7.0 0.00 0.01 0.00 74 1010.9
20260904104133 81 203 2.0 6.0 0.00 0.01 0.00 74 1010.9
20260904103640 81 197 1.0 8.0 0.00 0.01 0.00 74 1011.0
20260904103120 81 204 2.0 8.0 0.00 0.01 0.00 74 1010.9
20260904102630 81 269 4.0 8.0 0.00 0.01 0.00 74 1010.9
20260904102129 81 165 3.0 8.0 0.00 0.01 0.00 74 1011.0
20260904101652 81 270 2.0 8.0 0.00 0.01 0.00 74 1011.0
20260904101129 81 196 1.0 8.0 0.00 0.01 0.00 74 1011.0
20260904100633 81 275 2.0 7.0 0.00 0.01 0.00 73 1011.0
20260904100132 81 175 2.0 7.0 0.00 0.01 0.00 73 1011.0
20260904095616 81 204 1.0 5.0 0.00 0.01 0.00 73 1011.0
20260904095134 81 235 3.0 5.0 0.00 0.01 0.00 73 1010.9
20260904094622 82 237 2.0 7.0 0.00 0.01 0.00 73 1010.9
20260904094119 82 280 4.0 7.0 0.00 0.01 0.00 73 1010.8
20260904093642 82 187 3.0 6.0 0.00 0.01 0.00 73 1010.7
20260904093120 81 208 1.0 6.0 0.00 0.01 0.00 73 1010.7
20260904092625 82 220 2.0 7.0 0.00 0.01 0.00 73 1010.7
20260904092131 82 197 5.0 8.0 0.00 0.01 0.00 73 1010.6
20260904091616 81 231 5.0 8.0 0.00 0.01 0.00 73 1010.5
20260904091134 81 209 0.0 6.0 0.00 0.01 0.00 73 1010.5
20260904090617 81 235 1.0 10.0 0.00 0.01 0.00 73 1010.6
20260904090116 81 182 1.0 10.0 0.00 0.01 0.00 72 1010.5
20260904085623 81 236 3.0 10.0 0.00 0.01 0.00 72 1010.5
20260904085121 81 197 3.0 7.0 0.00 0.01 0.00 72 1010.5
20260904084628 81 274 2.0 10.0 0.00 0.01 0.00 72 1010.5
20260904084126 81 189 2.0 10.0 0.00 0.01 0.00 72 1010.5
20260904083630 81 189 2.0 7.0 0.00 0.01 0.00 72 1010.4
20260904083132 81 272 2.0 7.0 0.00 0.01 0.00 72 1010.4
20260904082656 81 274 4.0 7.0 0.00 0.01 0.00 72 1010.4
20260904082131 81 251 3.0 8.0 0.00 0.01 0.00 72 1010.4
20260904081615 81 250 3.0 9.0 0.00 0.01 0.00 72 1010.4
20260904081116 81 219 2.0 10.0 0.00 0.01 0.00 71 1010.3
20260904080622 81 128 4.0 10.0 0.00 0.01 0.00 71 1010.3
20260904080146 81 214 5.0 9.0 0.00 0.01 0.00 71 1010.4
20260904075630 81 250 3.0 9.0 0.00 0.01 0.00 71 1010.4
20260904075128 81 186 3.0 7.0 0.00 0.01 0.00 71 1010.3
20260904074632 81 246 2.0 6.0 0.00 0.01 0.00 71 1010.3
20260904074135 81 240 3.0 7.0 0.00 0.01 0.00 71 1010.4
20260904073623 81 210 4.0 7.0 0.00 0.01 0.00 71 1010.3
20260904073122 82 183 4.0 7.0 0.00 0.01 0.00 70 1010.4
20260904072629 82 217 4.0 8.0 0.00 0.01 0.00 70 1010.4
20260904072128 82 157 3.0 8.0 0.00 0.01 0.00 70 1010.3
20260904071619 82 218 1.0 12.0 0.00 0.01 0.00 70 1010.4
20260904071119 82 208 3.0 12.0 0.00 0.01 0.00 69 1010.4
20260904070623 82 298 2.0 11.0 0.00 0.01 0.00 69 1010.3
20260904070122 82 189 4.0 11.0 0.00 0.01 0.00 69 1010.4
20260904065626 82 169 3.0 8.0 0.00 0.01 0.00 69 1010.5
20260904065123 83 227 4.0 8.0 0.00 0.01 0.00 68 1010.4
20260904064626 83 175 2.0 8.0 0.00 0.01 0.00 68 1010.4
20260904064124 83 233 3.0 9.0 0.00 0.01 0.00 68 1010.5
20260904063627 83 260 4.0 12.0 0.00 0.01 0.00 67 1010.4
20260904063124 83 163 5.0 12.0 0.00 0.01 0.00 67 1010.4
20260904062632 83 258 4.0 9.0 0.00 0.01 0.00 67 1010.4
20260904062154 83 239 5.0 9.0 0.00 0.01 0.00 67 1010.4
20260904061617 83 250 1.0 9.0 0.00 0.01 0.00 67 1010.3
20260904061117 83 179 3.0 8.0 0.00 0.01 0.00 67 1010.3
20260904060626 84 201 3.0 8.0 0.00 0.01 0.00 67 1010.4
20260904060135 84 143 3.0 8.0 0.00 0.01 0.00 67 1010.4
20260904055617 84 137 3.0 9.0 0.00 0.01 0.00 66 1010.4
20260904055133 84 205 3.0 10.0 0.00 0.01 0.00 66 1010.3
20260904054618 84 161 5.0 12.0 0.00 0.01 0.00 66 1010.2
20260904054136 84 150 3.0 12.0 0.00 0.01 0.00 66 1010.1
20260904053619 85 231 5.0 11.0 0.00 0.01 0.00 65 1010.1
20260904053135 85 200 2.0 9.0 0.00 0.01 0.00 65 1010.0
20260904052638 85 144 2.0 9.0 0.00 0.01 0.00 65 1009.9
20260904052138 85 227 3.0 10.0 0.00 0.01 0.00 65 1009.9
20260904051641 85 206 4.0 10.0 0.00 0.01 0.00 64 1009.9
20260904051136 85 195 3.0 8.0 0.00 0.01 0.00 64 1009.9
20260904050627 85 260 4.0 11.0 0.00 0.01 0.00 64 1009.9
20260904050123 85 210 3.0 12.0 0.00 0.01 0.00 64 1009.9
20260904045619 85 164 4.0 8.0 0.00 0.01 0.01 64 1009.9
20260904045121 86 211 2.0 11.0 0.00 0.01 0.01 64 1009.9
20260904044625 86 214 4.0 11.0 0.00 0.01 0.01 63 1009.9
20260904044123 86 201 2.0 10.0 0.00 0.01 0.01 63 1009.8
20260904043626 86 228 4.0 10.0 0.00 0.01 0.01 63 1009.8
20260904043124 86 207 2.0 6.0 0.00 0.01 0.01 63 1009.8
20260904042627 86 133 2.0 11.0 0.00 0.01 0.01 63 1009.9
20260904042125 86 198 2.0 8.0 0.00 0.01 0.01 64 1009.9
20260904041627 86 142 2.0 8.0 0.00 0.01 0.01 64 1009.9
20260904041130 86 219 3.0 7.0 0.00 0.01 0.01 64 1010.0
20260904040637 86 279 2.0 7.0 0.00 0.01 0.01 64 1009.9
20260904040118 86 83 2.0 7.0 0.00 0.01 0.01 64 1009.9
20260904035620 86 208 2.0 7.0 0.00 0.01 0.01 64 1009.9
20260904035117 86 209 5.0 8.0 0.00 0.01 0.01 64 1009.9
20260904034626 86 202 2.0 13.0 0.00 0.01 0.01 64 1009.9
20260904034123 86 230 3.0 13.0 0.00 0.01 0.01 64 1009.9
20260904033628 86 133 3.0 9.0 0.00 0.01 0.01 64 1009.9
20260904033152 86 254 2.0 10.0 0.00 0.01 0.01 64 1009.9
20260904032614 86 256 4.0 10.0 0.00 0.01 0.01 64 1010.0
20260904032136 86 69 4.0 9.0 0.00 0.01 0.01 64 1009.9
20260904031618 86 127 4.0 11.0 0.00 0.01 0.01 64 1009.8
20260904031136 87 108 2.0 11.0 0.00 0.01 0.01 64 1009.8
20260904030644 87 144 2.0 7.0 0.00 0.01 0.01 64 1009.9
20260904030127 87 162 1.0 10.0 0.00 0.01 0.01 64 1009.7
20260904025632 87 179 4.0 10.0 0.00 0.01 0.01 64 1009.7
20260904025116 87 123 5.0 8.0 0.00 0.01 0.01 64 1009.7
20260904024619 87 193 2.0 7.0 0.00 0.01 0.01 64 1009.7
20260904024137 87 208 4.0 7.0 0.00 0.01 0.01 64 1009.7
20260904023641 88 117 2.0 8.0 0.00 0.01 0.01 63 1009.6
20260904023118 88 200 3.0 8.0 0.00 0.01 0.01 63 1009.7
20260904022624 88 154 5.0 8.0 0.00 0.01 0.01 63 1009.7
20260904022142 88 198 4.0 8.0 0.00 0.01 0.01 63 1009.6
20260904021629 88 250 5.0 8.0 0.00 0.01 0.01 63 1009.5
20260904021132 88 223 2.0 7.0 0.00 0.01 0.01 63 1009.5
20260904020617 88 163 4.0 7.0 0.00 0.01 0.01 62 1009.5
20260904020118 89 178 1.0 10.0 0.00 0.01 0.01 62 1010.4
20260904015621 89 112 4.0 10.0 0.00 0.01 0.01 62 1010.4
20260904015118 89 189 2.0 7.0 0.00 0.01 0.01 62 1010.4
20260904014622 89 129 5.0 9.0 0.00 0.01 0.01 62 1010.2
20260904014120 89 195 3.0 9.0 0.00 0.01 0.01 62 1010.2
20260904013624 89 146 3.0 9.0 0.00 0.01 0.01 62 1010.1
20260904013122 89 190 4.0 9.0 0.00 0.01 0.01 61 1010.0
20260904012625 89 142 2.0 8.0 0.00 0.01 0.01 61 1010.1
20260904012122 90 183 1.0 8.0 0.00 0.01 0.01 61 1009.9
20260904011625 90 250 4.0 10.0 0.00 0.01 0.01 61 1009.8
20260904011123 90 191 4.0 10.0 0.00 0.01 0.01 61 1009.7
20260904010628 90 118 4.0 8.0 0.00 0.01 0.01 61 1009.7
20260904010127 91 196 2.0 9.0 0.00 0.01 0.01 61 1009.7
20260904005630 91 81 2.0 10.0 0.00 0.01 0.01 60 1009.7
20260904005127 91 181 4.0 10.0 0.00 0.01 0.01 60 1009.6
20260904004634 91 157 1.0 9.0 0.00 0.01 0.01 60 1009.5
20260904004135 92 117 3.0 9.0 0.00 0.01 0.01 60 1009.5
20260904003619 92 218 3.0 6.0 0.00 0.01 0.01 59 1009.5
20260904003116 92 196 1.0 7.0 0.00 0.01 0.01 59 1009.5
20260904002620 93 154 4.0 10.0 0.00 0.01 0.01 58 1009.5
20260904002118 93 195 3.0 10.0 0.00 0.01 0.01 57 1009.5
20260904001623 93 144 3.0 8.0 0.00 0.01 0.01 57 1009.5
20260904001122 93 110 1.0 7.0 0.00 0.01 0.01 57 1009.4
20260904000625 94 293 4.0 7.0 0.00 0.01 0.01 56 1009.4
20260904000128 94 108 2.0 11.0 0.00 0.01 0.01 57 1009.4
20260903235632 94 185 6.0 11.0 0.00 0.01 0.01 56 1009.4
20260903235132 94 228 2.0 12.0 0.00 0.01 0.01 56 1009.3
20260903234640 95 240 6.0 12.0 0.00 0.01 0.01 55 1009.3
20260903234122 95 140 2.0 9.0 0.00 0.01 0.01 55 1009.3
20260903233643 95 179 6.0 9.0 0.00 0.01 0.01 54 1009.3
20260903233122 95 285 5.0 8.0 0.00 0.01 0.01 54 1009.2
20260903232631 95 246 3.0 9.0 0.00 0.01 0.01 54 1009.2
20260903232130 96 173 3.0 10.0 0.00 0.01 0.01 55 1009.2
20260903231656 96 194 2.0 10.0 0.00 0.01 0.01 54 1009.2
20260903231153 96 179 2.0 7.0 0.00 0.01 0.01 54 1009.2
20260903230618 96 131 3.0 10.0 0.00 0.01 0.01 54 1009.1
20260903230121 96 235 5.0 10.0 0.00 0.01 0.01 53 1009.1
20260903225632 96 177 3.0 10.0 0.00 0.01 0.01 53 1009.1
20260903225131 96 271 4.0 14.0 0.00 0.01 0.01 53 1009.1
20260903224634 96 201 5.0 14.0 0.00 0.01 0.01 52 1009.0
20260903224135 96 200 4.0 9.0 0.00 0.01 0.01 53 1009.0
20260903223618 96 231 6.0 13.0 0.00 0.01 0.01 53 1009.0
20260903223136 96 176 6.0 14.0 0.00 0.01 0.01 53 1009.0
20260903222622 96 272 7.0 14.0 0.00 0.01 0.01 53 1009.1
20260903222121 96 285 4.0 11.0 0.00 0.01 0.01 53 1009.0
20260903221628 96 162 4.0 11.0 0.00 0.01 0.01 54 1009.0
20260903221130 96 153 5.0 12.0 0.00 0.01 0.01 54 1009.0
20260903220634 96 226 5.0 14.0 0.00 0.01 0.01 53 1009.0
20260903220136 96 175 8.0 14.0 0.00 0.01 0.01 54 1008.9
20260903215620 96 179 2.0 13.0 0.00 0.01 0.01 55 1009.0
20260903215119 96 111 4.0 12.0 0.00 0.01 0.01 54 1009.0
20260903214626 96 208 3.0 12.0 0.00 0.01 0.01 53 1009.1
20260903214125 96 167 4.0 12.0 0.00 0.01 0.01 54 1009.1
20260903213633 96 259 7.0 14.0 0.00 0.01 0.01 54 1009.1
20260903213132 96 244 6.0 14.0 0.00 0.01 0.01 53 1009.0
20260903212618 96 221 7.0 10.0 0.00 0.01 0.01 53 1009.1
20260903212136 96 133 4.0 12.0 0.00 0.01 0.01 55 1009.2
20260903211621 96 199 4.0 14.0 0.00 0.01 0.01 54 1009.1
20260903211117 96 108 5.0 13.0 0.00 0.01 0.01 54 1009.2
20260903210620 96 160 3.0 12.0 0.00 0.01 0.01 54 1009.2
20260903210122 96 171 7.0 10.0 0.00 0.01 0.01 54 1009.2
20260903205625 96 194 5.0 16.0 0.00 0.01 0.01 55 1009.3
20260903205122 96 191 5.0 16.0 0.00 0.01 0.01 55 1009.3
20260903204627 95 202 5.0 12.0 0.00 0.01 0.01 56 1009.3
20260903204131 95 156 5.0 16.0 0.00 0.01 0.01 55 1009.4
20260903203618 95 227 11.0 16.0 0.00 0.01 0.01 55 1009.5
20260903203119 95 224 4.0 13.0 0.00 0.01 0.01 55 1009.5
20260903202621 95 166 8.0 12.0 0.00 0.01 0.01 54 1009.6
20260903202123 95 200 6.0 12.0 0.00 0.01 0.01 54 1009.5
20260903201627 95 66 4.0 15.0 0.00 0.01 0.01 55 1009.5
20260903201130 95 167 3.0 15.0 0.00 0.01 0.01 56 1009.7
20260903200634 95 207 6.0 14.0 0.00 0.01 0.01 55 1009.7
20260903200134 95 228 6.0 12.0 0.00 0.01 0.01 56 1009.7
20260903195618 95 177 6.0 12.0 0.00 0.01 0.01 56 1009.8
20260903195136 95 177 6.0 12.0 0.00 0.01 0.01 56 1009.8
20260903194644 95 144 4.0 12.0 0.00 0.01 0.01 58 1009.8
20260903194126 94 185 3.0 11.0 0.00 0.01 0.01 58 1009.8
20260903193631 94 212 4.0 11.0 0.00 0.01 0.01 59 1009.9
20260903193128 93 223 3.0 10.0 0.00 0.01 0.01 59 1010.0
20260903192633 93 237 5.0 10.0 0.00 0.01 0.01 60 1010.0
20260903192132 93 243 5.0 11.0 0.00 0.01 0.01 60 1010.1
20260903191638 93 171 3.0 11.0 0.00 0.01 0.01 60 1010.1
20260903191156 93 189 5.0 9.0 0.00 0.01 0.01 60 1010.2
20260903190618 92 138 2.0 9.0 0.00 0.01 0.01 60 1010.4
20260903190138 92 258 2.0 9.0 0.00 0.01 0.01 61 1010.6
20260903185625 92 149 5.0 11.0 0.00 0.01 0.01 61 1010.6
20260903185122 92 196 3.0 11.0 0.00 0.01 0.01 60 1010.6
20260903184630 92 148 6.0 11.0 0.00 0.01 0.01 60 1010.6
20260903184128 91 148 2.0 12.0 0.00 0.01 0.01 62 1010.8
20260903183636 91 175 5.0 13.0 0.00 0.01 0.01 62 1010.8
20260903183117 90 177 4.0 12.0 0.00 0.01 0.01 63 1010.9
20260903182621 90 167 5.0 8.0 0.00 0.01 0.01 63 1011.0
20260903182118 90 165 5.0 8.0 0.00 0.01 0.01 63 1011.1